Location: Henry Coe State Park
(37.1875°N, 121.5503°W)
Time: 09:36:57
(UTC-07:00)

Daily predictions for brighter satellites

Satellite Brightness Start Highest point End
(mag) Time Altitude Azimuth Time Altitude Azimuth Time Altitude Azimuth
H-2A R/B 4.2 20:11:40 10° S 20:15:11 40° W 20:18:46 10° NNW
FREGAT/IRIS 3.1 20:15:52 10° S 20:18:46 60° W 20:21:41 10° NNW
Envisat 3.1 20:14:22 10° SSE 20:19:22 62° ENE 20:24:23 10° N
Cosmos 1328 Rocket 3.7 20:15:24 10° S 20:19:41 52° E 20:24:00 10° NNE
Cosmos 1805 Rocket 4.2 20:16:03 10° NNW 20:20:20 60° W 20:24:35 10° S
Cosmos 2228 Rocket 3.5 20:21:34 10° SSE 20:25:39 40° E 20:29:46 10° NNE
Nadezhda 3 Rocket 4.0 20:19:17 10° N 20:25:39 79° E 20:32:01 10° S
CZ-4C R/B 3.7 20:29:40 10° ESE 20:30:14 10° ESE 20:31:07 10° E
Cosmos 2251 Rocket 4.4 20:27:38 10° NNW 20:32:52 54° WSW 20:38:03 10° S
Cosmos 1408 3.6 20:30:28 10° NNE 20:33:43 29° ENE 20:36:44 11° SE
Cosmos 2056 Rocket 4.1 20:30:40 10° SSE 20:35:34 36° E 20:40:29 10° NE
HJ-1C 4.3 20:33:17 10° S 20:36:32 51° W 20:39:50 10° NNW
Cosmos 1470 Rocket 3.8 20:35:02 10° N 20:39:21 50° E 20:43:40 10° SSE
Sakura Rocket 4.4 20:38:35 10° WSW 20:43:20 29° S 20:46:16 15° SE
SL-16 R/B 2.7 20:39:33 10° SSE 20:44:38 35° ESE 20:49:43 10° NE
Cosmos 220 Rocket 4.1 20:40:47 10° NNW 20:45:06 77° WSW 20:49:19 10° SSE
YAOGAN 6 2.5 20:46:14 10° SSE 20:49:49 72° ENE 20:53:28 10° N
ERS-2 2.2 20:46:16 10° S 20:49:54 80° WSW 20:53:36 10° NNW
Cosmos 1624 Rocket 4.0 20:46:50 10° S 20:51:53 55° ESE 20:56:56 10° NNE
Cosmos 405 4.5 20:50:31 10° NNE 20:53:05 19° ENE 20:53:43 18° E
Resurs 01 Rocket 1.6 20:50:10 10° SSE 20:54:32 64° ENE 20:58:56 10° N
Cosmos 1151 Rocket 2.9 20:50:54 10° S 20:55:09 88° E 20:59:27 10° N
Cosmos 2098 Rocket 3.4 20:51:49 10° SSE 20:56:09 40° E 20:59:40 10° NNE
SJ-11-01 4.3 20:54:14 13° SSE 20:58:21 60° ENE 21:02:57 10° N
ATLAS 2AS CENTAUR R/B 3.1 20:51:17 10° NW 20:59:05 73° WSW 21:06:02 11° SSE
Spot 2 Rocket 3.6 20:57:36 14° SSE 21:01:51 59° ENE 21:06:51 10° N
Cosmos 1455 4.0 21:00:20 10° SW 21:03:50 34° W 21:07:24 10° NNW
Cosmos 1959 Rocket 4.4 20:59:07 10° S 21:05:13 70° E 21:11:18 10° NNE
Cosmos 1933 Rocket 3.5 21:03:15 10° N 21:07:38 89° E 21:11:32 13° S
Thor Agena Rocket 4.3 21:04:14 10° N 21:09:22 56° WNW 21:14:32 10° SSW
Cosmos 1869 3.2 21:08:23 10° S 21:12:24 85° E 21:16:26 10° N
Cosmos 1441 Rocket 3.8 21:12:11 32° ESE 21:12:37 34° E 21:16:02 10° NNE
Cosmos 1727 Rocket 4.2 21:08:50 10° N 21:14:48 49° E 21:18:24 23° SE
Cosmos 1707 Rocket 4.4 21:19:11 29° E 21:19:15 29° E 21:23:00 10° NNE
Resurs 1-3 4.0 21:16:00 11° S 21:20:07 61° W 21:24:28 10° NNW
Cosmos 2369 Rocket 4.4 21:19:40 10° NE 21:20:35 10° NE 21:21:30 10° ENE
USA 186 3.6 21:19:19 12° SW 21:20:46 19° W 21:22:33 10° NW
Cosmos 2297 4.0 21:15:20 10° N 21:20:50 49° ENE 21:23:18 30° ESE
Cosmos 1939 Rocket 3.9 21:20:28 10° S 21:24:08 42° W 21:27:53 10° NNW
CZ-4B DEB 4.5 21:26:24 53° ESE 21:26:53 60° ENE 21:30:20 10° N
Cosmos 2344 3.6 21:20:43 10° S 21:28:09 54° ESE 21:35:51 10° NE
NOSS 3-4 (A) 4.0 21:22:45 10° NNW 21:29:49 64° NE 21:33:43 30° SE
NOSS 3-4 (C) 4.0 21:22:52 10° NNW 21:29:55 63° NE 21:33:48 30° SE
Cosmos 2218 Rocket 4.3 21:24:12 10° SSW 21:30:32 73° W 21:36:57 10° N
ERS-1 Rocket 3.9 21:29:53 28° E 21:30:41 30° ENE 21:35:01 10° N
Cosmos 1869 Rocket 3.8 21:26:32 10° N 21:30:44 45° E 21:31:16 42° ESE
Cosmos 1420 Rocket 4.4 21:35:20 39° ESE 21:35:58 41° ESE 21:40:56 10° NNE
Cosmos 2237 Rocket 4.0 21:31:06 10° WSW 21:36:04 32° WNW 21:41:05 10° N
Cosmos 2366 rocket 4.2 21:31:22 10° SSW 21:37:33 71° W 21:43:51 10° N
ATLAS 5 CENTAUR R/B 4.4 21:34:16 10° N 21:37:44 16° NE 21:40:22 12° ENE
Cosmos 407 Rocket 3.3 21:37:48 10° NNW 21:42:57 88° ENE 21:44:42 43° SSE
Cosmos 405 Rocket 2.6 21:45:42 67° S 21:46:12 90° E 21:50:09 10° N
Cosmos 1825 3.9 21:43:54 10° NNW 21:47:14 30° W 21:49:34 16° SW
ASTRO E2 3.8 21:44:02 10° WSW 21:46:49 31° SSW 21:46:49 31° SSW
Cosmos 2278 Rocket 3.5 21:43:27 10° NW 21:48:33 35° WSW 21:52:47 14° SSW
Lacrosse 5 3.9 21:48:51 10° NNW 21:52:12 17° NNE 21:53:59 15° NE
SPOT 5 4.0 21:53:59 26° NE 21:53:59 26° NE 21:57:01 10° NNE
OAO 3 Copernicus 4.1 21:49:50 10° W 21:54:50 70° S 21:55:17 65° SE
SPOT 1/Viking Rocket 4.5 21:57:25 32° ENE 21:57:25 32° ENE 22:01:53 10° N
USA 81 4.1 21:56:41 10° N 22:01:57 75° W 22:03:41 43° SSW
Cosmos 1023 Rocket 4.3 21:59:39 10° NNW 22:04:48 72° ENE 22:05:05 70° E
H-2A R/B 1.8 22:04:33 69° ESE 22:04:55 73° ENE 22:09:53 10° N
Cosmos 676 Rocket 3.8 22:01:45 10° NNW 22:07:01 89° ENE 22:07:35 72° SSE
Cosmos 1862 3.7 22:04:32 10° NNW 22:08:23 60° W 22:08:23 60° W
MetOp-B 4.0 22:10:38 65° S 22:11:29 86° WSW 22:16:52 10° NNW
ARGOS 3.3 22:14:36 54° SSW 22:15:41 69° WSW 22:21:03 10° NNW
CZ-4C R/B 2.0 22:14:15 22° SW 22:17:35 80° WNW 22:23:22 10° NNE
Cosmos 1452 Rocket 3.8 22:15:28 29° SW 22:18:04 65° WNW 22:23:18 10° NNE
Helios 1B rocket 4.4 22:16:12 10° NNE 22:17:39 21° NNE 22:17:39 21° NNE
Cosmos 1943 Rocket 3.7 22:17:40 10° N 22:21:35 22° NE 22:21:35 22° NE
Cosmos 1934 Rocket 3.9 22:25:38 66° E 22:25:38 66° E 22:31:26 10° NNE
Cosmos 1140 Rocket 3.6 22:23:25 10° NNW 22:28:28 68° W 22:28:28 68° W
SL-16 R/B 4.0 22:23:50 10° WSW 22:28:44 30° WNW 22:33:39 10° N
ATLAS 2A CENTAUR R/B 3.9 22:20:39 10° WSW 22:37:51 48° S 22:38:54 47° S
Terra 3.2 22:57:51 33° N 22:57:51 33° N 23:00:32 10° N
Cosmos 1603 4.2 22:55:25 52° W 22:55:56 54° WNW 23:01:26 10° NNE
Cosmos 1943 4.1 22:58:27 40° NNE 22:58:27 40° NNE 23:01:58 10° NNE
Cosmos 2369 Rocket 2.9 22:59:57 10° NNW 23:04:12 50° N 23:04:12 50° N
CZ-2C R/B 4.5 23:04:47 10° NNE 23:06:43 22° NE 23:06:43 22° NE
Cosmos 2123 Rocket 4.4 23:12:41 10° NNW 23:18:15 57° WNW 23:18:15 57° WNW
USA 267 3.4 23:15:04 10° NE 23:20:46 66° N 23:20:46 66° N
ATLAS 5 CENTAUR R/B 3.0 23:17:14 10° NNW 23:21:55 54° N 23:21:55 54° N
Lacrosse 5 3.7 23:30:48 10° NW 23:33:10 28° NW 23:33:10 28° NW
USA 234 4.3 23:53:06 37° NE 23:53:22 37° NNE 23:59:16 10° NNW
